Location: Champignolles
(47.0543°N, 4.5663°E)
Time: 02:04:46
(UTC+00:00)

Envisat - Pass Details

Date: 07 March 2021
Orbit: 764 x 766 km, 98.1° (Epoch: 11 April)

Event Time Altitude Azimuth Distance (km) Brightness Sun altitude
Rises 04:10:02 0° 28° (NNE) 3,243 6.9 -21.1°
Reaches altitude 10° 04:13:06 10° 47° (NE) 2,311 6.4 -20.6°
Maximum altitude 04:16:32 18° 90° (E) 1,807 5.8 -20.1°
Drops below altitude 10° 04:19:58 10° 133° (SE) 2,298 5.9 -19.5°
Sets 04:22:59 0° 152° (SSE) 3,218 6.4 -19.0°
